This is the latest recevied weather packets stored in our database for station/object LU1MQF-13. If no packets are shown the sender has not sent any weather packets the latest 10 day(s).
| Time | Temp. | Humidity | Pressure | Rain* | Wind** | Luminosity | Snow |
|---|---|---|---|---|---|---|---|
| 1777661819 | 21.11° C | 19% | 938.2 hPa | - | - | - | - |
| 1777660918 | 21.11° C | 20% | 938 hPa | - | - | - | - |
| 1777660019 | 21.11° C | 21% | 938 hPa | - | - | - | - |
| 1777659119 | 21.11° C | 22% | 937.9 hPa | - | - | - | - |
| 1777658219 | 21.11° C | 23% | 937.7 hPa | - | - | - | - |
| 1777657319 | 21.11° C | 20% | 937.8 hPa | - | - | - | - |
| 1777656419 | 21.11° C | 21% | 937.6 hPa | - | - | - | - |
| 1777655519 | 21.11° C | 23% | 937.7 hPa | - | - | - | - |
| 1777654619 | 21.11° C | 21% | 937.8 hPa | - | - | - | - |
| 1777653719 | 21.11° C | 23% | 937.6 hPa | - | - | - | - |
| 1777652819 | 21.11° C | 24% | 937.8 hPa | - | - | - | - |
| 1777651925 | 21.11° C | 23% | 937.7 hPa | - | - | - | - |
| 1777651019 | 21.11° C | 24% | 937.7 hPa | - | - | - | - |
| 1777650119 | 21.11° C | 25% | 937.5 hPa | - | - | - | - |
| 1777649218 | 21.11° C | 24% | 937.7 hPa | - | - | - | - |
| 1777648319 | 20° C | 24% | 937.6 hPa | - | - | - | - |
| 1777647419 | 20° C | 27% | 937.6 hPa | - | - | - | - |
| 1777646519 | 20° C | 32% | 937.4 hPa | - | - | - | - |
| 1777645619 | 18.89° C | 27% | 937.3 hPa | - | - | - | - |
| 1777644719 | 18.89° C | 29% | 937.1 hPa | - | - | - | - |
| 1777643819 | 18.89° C | 34% | 937.1 hPa | - | - | - | - |
| 1777642919 | 17.78° C | 36% | 937 hPa | - | - | - | - |
| 1777642019 | 17.78° C | 40% | 936.7 hPa | - | - | - | - |
| 1777641119 | 17.78° C | 45% | 936.2 hPa | - | - | - | - |
| 1777640219 | 17.22° C | 42% | 935.8 hPa | - | - | - | - |
* Rain since midnight (hover to see other rain measurements)
** Current wind speed in m/s (hover to see current wind gust speed)